Location: Brede
(50.9167°N, 0.6000°E)
Time: 03:59:26
(UTC+00:00)

Vanguard 1 Rocket - Visible Passes

Search period start: 19 May 2021 00:00
Search period end: 29 May 2021 00:00
Orbit: 651 x 4225 km, 34.3° (Epoch: 18 May)

Date Brightness Start Highest point End Pass type
(mag) Time Alt. Az. Time Alt. Az. Time Alt. Az.
19 May 11.6 02:04:52 10° SSE 02:19:02 18° SE 02:32:24 10° E visible
20 May 11.7 01:05:47 10° SE 01:06:49 10° ESE 01:07:52 10° ESE visible
20 May 11.4 03:13:22 10° SSW 03:33:25 31° SE 03:50:58 10° E visible
21 May 11.4 02:03:44 10° S 02:20:26 23° SE 02:36:30 10° E visible
22 May 11.5 00:57:27 10° SSE 01:08:03 14° SE 01:18:49 10° E visible
22 May 11.3 03:13:56 10° SSW 03:35:02 35° SSE 03:53:55 10° E visible
23 May 11.3 02:03:34 10° S 02:21:49 28° SE 02:39:54 10° E visible
24 May 11.3 00:55:27 10° SSE 01:09:15 19° SE 01:23:46 10° E visible
24 May 11.2 03:14:55 10° SSW 03:36:38 40° SSE 03:56:39 10° E visible
24 May 11.4 23:56:38 10° ESE 23:57:26 10° ESE 23:58:14 10° ESE visible
25 May 11.2 02:04:43 11° SSW 02:23:13 32° SE 02:42:52 10° E visible
26 May 11.1 00:56:56 13° S 01:10:28 23° SE 01:27:31 10° E visible
26 May 11.3 23:49:06 10° SSE 23:58:30 14° ESE 00:08:48 10° E visible
27 May 11.0 02:06:20 13° SSW 02:24:39 36° SSE 02:45:35 10° E visible
28 May 11.0 00:58:28 16° S 01:11:43 28° SE 01:30:38 10° E visible
